Find Local Weather

World > North America > United States > Oregon

Chiloquin, Oregon Regional Weather

Lat: 42.58N, Lon: 121.87W
Wx Zone: ORZ029
Feedback

Chiloquin, OR Regional Weather

Expires:201903260700;;352876
ASUS46 KPQR 260610
RWROR 

OREGON REGIONAL WEATHER ROUNDUP
NATIONAL WEATHER SERVICE PORTLAND OR
1100 PM PDT MON MAR 25 2019

NOTE: "FAIR" INDICATES FEW OR NO CLOUDS BELOW 12,000 FEET WITH
NO SIGNIFICANT WEATHER AND/OR OBSTRUCTIONS TO VISIBILITY.


ORZ029>031-041-044-049-050-061>064-502-503-505>511-260700-
EASTERN OREGON

  
CITY           SKY/WX    TMP DP  RH WIND       PRES   REMARKS
MADRAS         CLOUDY    43  32  65 S3        30.00S                  
REDMOND        CLOUDY    41  33  73 CALM      29.98R                  
6HR MIN TEMP:  41; 6HR MAX TEMP:  54;                                

BEND           FAIR      39  34  81 S9        29.98S                  
PRINEVILLE     CLOUDY    43  32  65 W13       29.98R                  
KLAMATH FALLS  CLOUDY    38  33  82 S8        30.00R                  
6HR MIN TEMP:  37; 6HR MAX TEMP:  42;                                

LAKEVIEW       LGT RAIN  37  35  92 S10       30.01R WCI  30          
HERMISTON      FAIR      49  38  65 W13       29.97R                  
6HR MIN TEMP:  49; 6HR MAX TEMP:  58;                                

PENDLETON      FAIR      45  38  76 W26       29.95R                  
6HR MIN TEMP:  45; 6HR MAX TEMP:  62; 6HR PCP: TRACE;                

JOHN DAY       FAIR      46  37  69 CALM      29.97S                  
MEACHAM        FAIR      39  34  82 CALM      29.95S                  
6HR MIN TEMP:  37; 6HR MAX TEMP:  49; 6HR PCP:  0.02;                

LA GRANDE      MOCLDY    52  34  50 S9G18     29.96S                  
6HR MIN TEMP:  49; 6HR MAX TEMP:  58;                                

BAKER CITY     LGT RAIN  49  36  61 SE8       29.98S                  
6HR MIN TEMP:  49; 6HR MAX TEMP:  58; 6HR PCP: TRACE;                

BURNS          CLOUDY    42  33  70 E3        29.98F                  
6HR MIN TEMP:  42; 6HR MAX TEMP:  56; 6HR PCP: TRACE;                

ROME             N/A     48  28  46 SW8       29.95F                  
6HR MIN TEMP:  48; 6HR MAX TEMP:  64;                                

ONTARIO        FAIR      58  33  39 S13       29.98R                  
6HR MIN TEMP:  55; 6HR MAX TEMP:  64;                                

$$
  

SKY/WX - Weather  TMP - Temperature  DP - Dew Point  RH - Relative Humidity
WIND - Wind Direction/Speed PRES - Barometric Pressure VSB - Visibility
WCI - Wind Chill Index E13G22 Wind - East Wind 13 mph/Gusts of 22 mph